FW3213 Weather Reports


time (UTC)temp
C
wind
direction
speed
KPH
gust
KPH
rain 1hr
cm
rain 24hr
cm
rain mn
cm
humidity
%
barometer
mb
20260906230545 23 112 3.2 4.8 0.00 0.25 0.03 38 2118.8
20260906224728 24 112 6.4 8.0 0.00 0.25 0.03 37 2118.9
20260906223729 25 120 6.4 12.9 0.00 0.25 0.03 35 2118.8
20260906222730 25 128 3.2 9.7 0.00 0.25 0.03 35 2119.1
20260906220829 25 112 6.4 9.7 0.00 0.25 0.03 35 2119.2
20260906215830 25 112 4.8 8.0 0.00 0.25 0.03 37 2119.6
20260906214829 24 124 3.2 6.4 0.00 0.25 0.03 35 2119.8
20260906213828 25 155 4.8 6.4 0.00 0.25 0.03 34 2120.0
20260906212828 26 150 4.8 6.4 0.00 0.25 0.03 31 2119.7
20260906211829 26 122 3.2 6.4 0.00 0.25 0.03 30 2119.6
20260906210829 26 142 4.8 9.7 0.00 0.25 0.03 29 2120.1
20260906210729 26 112 6.4 11.3 0.00 0.25 0.03 30 2119.8
20260906205729 26 136 6.4 9.7 0.00 0.25 0.03 30 2120.1
20260906204828 26 126 8.0 12.9 0.00 0.25 0.03 30 2120.1
20260906203829 25 230 0.0 3.2 0.00 0.25 0.03 31 2120.3
20260906202831 25 112 6.4 9.7 0.00 0.25 0.03 29 2120.4
20260906200928 25 169 6.4 9.7 0.00 0.25 0.03 29 2120.9
20260906200830 25 124 4.8 8.0 0.00 0.25 0.03 29 2120.8
20260906195828 25 135 3.2 6.4 0.00 0.25 0.03 28 2120.8
20260906195729 25 135 3.2 6.4 0.00 0.25 0.03 28 2120.8
20260906194731 25 123 4.8 8.0 0.00 0.25 0.03 28 2120.6
20260906193828 25 119 9.7 11.3 0.00 0.25 0.03 29 2120.8
20260906192828 25 128 4.8 6.4 0.00 0.25 0.03 29 2121.2
20260906192729 26 112 8.0 14.5 0.00 0.25 0.03 29 2121.2
20260906191730 25 127 4.8 6.4 0.00 0.25 0.03 30 2121.2
20260906191628 25 184 3.2 6.4 0.00 0.25 0.03 30 2121.4
20260906190628 25 117 6.4 12.9 0.00 0.25 0.03 30 2121.4
20260906184728 25 177 1.6 4.8 0.00 0.25 0.03 30 2122.2
20260906183731 25 116 6.4 9.7 0.00 0.25 0.03 31 2121.9
20260906180729 24 110 6.4 11.3 0.00 0.25 0.03 32 2123.0
20260906174729 23 118 4.8 6.4 0.00 0.25 0.03 34 2123.6
20260906173728 22 352 1.6 9.7 0.00 0.25 0.03 35 2124.2
20260906173629 22 103 1.6 4.8 0.00 0.25 0.03 36 2124.3
20260906172628 22 112 0.0 1.6 0.00 0.25 0.03 38 2124.6
20260906170630 22 112 8.0 14.5 0.00 0.25 0.03 38 2125.0
20260906165628 22 112 6.4 9.7 0.00 0.25 0.03 40 2125.2
20260906165531 22 120 3.2 6.4 0.00 0.25 0.03 40 2125.0
20260906164629 21 107 3.2 6.4 0.00 0.25 0.03 40 2125.1
20260906163629 21 112 6.4 8.0 0.00 0.25 0.03 41 2125.4
20260906161629 21 125 3.2 6.4 0.00 0.25 0.03 47 2125.4
20260906161528 20 113 0.0 1.6 0.00 0.25 0.03 47 2125.4
20260906160529 20 112 0.0 0.0 0.00 0.25 0.03 46 2125.5
20260906154627 18 112 3.2 4.8 0.00 0.25 0.03 51 2125.4
20260906153528 17 225 0.0 3.2 0.00 0.25 0.03 57 2125.7
20260906152529 17 315 0.0 0.0 0.00 0.25 0.03 59 2125.7
20260906151628 16 315 0.0 0.0 0.00 0.25 0.03 63 2125.7
20260906150645 15 315 0.0 0.0 0.00 0.25 0.03 67 2125.7
20260906150528 15 315 0.0 0.0 0.00 0.25 0.03 68 2125.7
20260906145627 13 315 0.0 0.0 0.00 0.25 0.03 70 2126.0
20260906144629 13 315 0.0 0.0 0.00 0.25 0.03 70 2125.9
20260906143629 12 315 0.0 0.0 0.00 0.25 0.03 74 2126.2
20260906142630 11 315 0.0 0.0 0.00 0.25 0.03 80 2125.9
20260906142532 11 315 0.0 0.0 0.00 0.25 0.03 81 2125.9
20260906141529 10 315 0.0 0.0 0.00 0.25 0.03 81 2125.8
20260906140529 10 315 0.0 0.0 0.00 0.25 0.03 81 2125.9
20260906134530 9 315 0.0 0.0 0.00 0.25 0.03 83 2125.8
20260906133629 9 315 0.0 0.0 0.00 0.25 0.03 84 2125.5
20260906131730 8 315 1.6 1.6 0.00 0.25 0.03 85 2125.7
20260906131627 8 315 1.6 1.6 0.00 0.25 0.03 86 2125.8
20260906130628 8 315 3.2 4.8 0.00 0.25 0.03 87 2125.4
20260906125627 7 337 3.2 4.8 0.00 0.25 0.03 89 2125.4
20260906124628 7 337 1.6 3.2 0.00 0.25 0.03 88 2125.2
20260906123629 7 337 0.0 1.6 0.00 0.25 0.03 88 2125.2
20260906123530 7 337 0.0 3.2 0.00 0.25 0.03 88 2125.1
20260906122527 8 337 1.6 3.2 0.00 0.25 0.03 87 2125.0
20260906122428 8 337 1.6 1.6 0.00 0.25 0.03 87 2125.0
20260906120428 8 337 0.0 0.0 0.00 0.25 0.03 87 2125.4
20260906115430 8 337 3.2 4.8 0.00 0.25 0.03 89 2125.4
20260906114428 8 337 0.0 0.0 0.00 0.25 0.03 89 2125.5
20260906114328 8 337 0.0 1.6 0.00 0.25 0.03 89 2125.4
20260906113330 8 337 1.6 3.2 0.00 0.25 0.03 89 2125.5
20260906112329 8 337 0.0 0.0 0.00 0.25 0.03 88 2125.0
20260906110327 8 337 1.6 1.6 0.00 0.25 0.03 88 2125.0
20260906105327 9 337 3.2 3.2 0.00 0.25 0.03 87 2124.9
20260906104427 8 337 1.6 3.2 0.00 0.25 0.03 88 2124.7
20260906103428 8 337 3.2 3.2 0.00 0.25 0.03 88 2124.9
20260906102443 8 337 1.6 3.2 0.03 0.25 0.03 89 2125.0
20260906101527 8 337 1.6 3.2 0.03 0.25 0.03 90 2125.0
20260906095528 7 337 1.6 3.2 0.03 0.25 0.03 92 2124.9
20260906094527 7 337 0.0 0.0 0.03 0.25 0.03 92 2125.2
20260906093528 7 337 3.2 4.8 0.03 0.25 0.03 92 2125.4
20260906092529 7 337 1.6 1.6 0.03 0.25 0.00 91 2125.4
20260906091628 8 337 1.6 1.6 0.00 0.23 0.00 90 2125.5
20260906090628 8 337 0.0 1.6 0.00 0.23 0.00 90 2125.4
20260906090526 8 337 0.0 1.6 0.00 0.23 0.00 90 2125.4
20260906085528 8 337 3.2 3.2 0.00 0.23 0.00 91 2125.5
20260906085427 8 337 3.2 4.8 0.00 0.23 0.00 90 2125.5
20260906084428 8 337 4.8 6.4 0.00 0.23 0.00 91 2125.5
20260906083527 8 337 0.0 0.0 0.00 0.23 0.00 90 2125.3
20260906082528 8 337 0.0 0.0 0.00 0.23 0.00 91 2125.4
20260906081626 8 337 1.6 3.2 0.00 0.23 0.00 92 2125.8
20260906080629 8 337 3.2 4.8 0.00 0.23 0.00 92 2126.0
20260906075628 9 337 1.6 1.6 0.00 0.23 0.00 91 2126.2
20260906074627 8 337 3.2 3.2 0.00 0.23 0.00 91 2126.4
20260906074528 8 337 3.2 4.8 0.00 0.23 0.00 91 2126.1
20260906073527 9 337 3.2 3.2 0.00 0.23 0.00 92 2126.2
20260906072528 8 337 3.2 3.2 0.00 0.23 0.00 91 2126.4
20260906071527 8 337 1.6 3.2 0.00 0.23 0.00 91 2126.2
20260906070527 8 337 1.6 3.2 0.00 0.23 0.00 91 2126.4
20260906070428 8 337 0.0 1.6 0.00 0.23 0.00 92 2126.4
20260906065428 9 337 1.6 1.6 0.00 0.23 0.00 91 2126.4
20260906063429 8 337 4.8 4.8 0.00 0.23 0.00 91 2126.2
20260906062527 9 337 3.2 4.8 0.00 0.23 0.00 91 2126.6
20260906060626 9 337 3.2 3.2 0.00 0.23 0.00 91 2127.2
20260906055717 10 337 3.2 3.2 0.00 0.23 0.23 90 2126.7
20260906054716 10 337 3.2 4.8 0.00 0.23 0.23 91 2126.9
20260906054617 10 337 3.2 4.8 0.00 0.23 0.23 90 2126.9
20260906053717 10 337 1.6 3.2 0.00 0.23 0.23 90 2127.1
20260906052717 10 337 1.6 3.2 0.00 0.23 0.23 89 2127.2
20260906051718 11 337 0.0 0.0 0.00 0.23 0.23 89 2127.5
20260906050816 11 337 3.2 4.8 0.00 0.23 0.23 90 2127.7
20260906045815 11 337 3.2 3.2 0.03 0.23 0.23 89 2127.7
20260906044817 11 292 3.2 6.4 0.10 0.23 0.23 89 2127.5
20260906043832 11 292 0.0 3.2 0.20 0.23 0.23 87 2127.7
20260906042917 11 292 0.0 1.6 0.23 0.23 0.23 86 2127.5
20260906041917 11 292 0.0 0.0 0.23 0.23 0.23 86 2127.3
20260906041015 11 307 3.2 4.8 0.23 0.23 0.23 86 2127.8
20260906040017 11 292 4.8 4.8 0.20 0.20 0.20 84 2128.2
20260906035016 12 292 8.0 12.9 0.15 0.15 0.15 75 2128.9
20260906034115 15 306 11.3 16.1 0.05 0.05 0.05 57 2127.9
20260906033116 17 292 4.8 6.4 0.00 0.00 0.00 44 2126.6
20260906030216 17 337 0.0 0.0 0.00 0.00 0.00 42 2124.9
20260906025217 16 337 1.6 3.2 0.00 0.00 0.00 43 2124.6
20260906024116 16 112 0.0 0.0 0.00 0.00 0.00 43 2124.9
20260906023116 17 112 0.0 0.0 0.00 0.00 0.00 42 2124.6
20260906023015 17 112 0.0 0.0 0.00 0.00 0.00 42 2124.6
20260906022016 17 112 0.0 0.0 0.00 0.00 0.00 40 2124.4
20260906021916 17 112 0.0 0.0 0.00 0.00 0.00 40 2124.6
20260906020916 17 112 0.0 0.0 0.00 0.00 0.00 40 2124.6
20260906015917 17 112 0.0 0.0 0.00 0.00 0.00 38 2123.8
20260906013016 19 112 0.0 0.0 0.00 0.00 0.00 35 2123.8
20260906012016 20 112 0.0 0.0 0.00 0.00 0.00 33 2123.7
20260906011017 20 112 0.0 0.0 0.00 0.00 0.00 32 2123.7
20260906010017 21 112 0.0 0.0 0.00 0.00 0.00 31 2123.6
20260906005019 21 112 1.6 1.6 0.00 0.00 0.00 32 2123.3
20260906003116 21 155 1.6 3.2 0.00 0.00 0.00 31 2123.3
20260906002115 21 137 3.2 4.8 0.00 0.00 0.00 31 2123.4
20260906001117 22 112 3.2 6.4 0.00 0.00 0.00 30 2123.3
20260906000117 22 112 3.2 6.4 0.00 0.00 0.00 30 2122.8
20260905233114 22 112 3.2 4.8 0.00 0.00 0.00 28 2123.0
20260905232118 23 112 3.2 6.4 0.00 0.00 0.00 28 2122.8